Location: Aldenham
(51.6667°N, 0.3500°W)
Time: 19:48:09
(UTC+00:00)

S-56A Canister/Altair - All Passes

Search period start: 15 February 2026 00:00
Search period end: 25 February 2026 00:00
Orbit: 632 x 2485 km, 38.9° (Epoch: 15 February)

Date Brightness Start Highest point End Pass type
(mag) Time Alt. Az. Time Alt. Az. Time Alt. Az.
15 Feb - 00:24:29 10° SSW 00:29:50 24° SSE 00:36:58 10° ESE visible
15 Feb - 02:25:34 10° WSW 02:32:44 38° S 02:43:00 10° ESE visible
15 Feb - 04:28:16 10° WSW 04:36:34 34° SSW 04:47:43 10° SE visible
15 Feb - 06:33:02 10° WSW 06:40:25 20° SW 06:49:05 10° S visible
15 Feb - 23:50:28 10° SSW 23:55:06 20° SSE 00:01:03 10° ESE night (unlit)
16 Feb - 01:51:06 10° SW 01:57:44 36° S 02:07:11 10° ESE visible
16 Feb - 03:53:33 10° WSW 04:01:22 34° SSW 04:12:06 10° SE visible
16 Feb - 05:57:49 10° WSW 06:05:11 21° SSW 06:14:07 10° S visible
16 Feb - 23:16:37 10° S 23:20:25 17° SE 23:25:04 10° ESE night (unlit)
17 Feb - 01:16:43 10° SW 01:22:48 33° SSE 01:31:24 10° ESE visible
17 Feb - 03:18:54 10° WSW 03:26:14 34° S 03:36:26 10° SE visible
17 Feb - 05:22:45 10° WSW 05:30:00 22° SSW 05:39:00 10° SSE visible
17 Feb - 22:43:04 10° S 22:45:47 13° SE 22:48:53 10° ESE night (unlit)
18 Feb - 00:42:23 10° SW 00:47:56 30° SSE 00:55:40 10° ESE visible
18 Feb - 02:44:19 10° WSW 02:51:09 34° S 03:00:46 10° SE visible
18 Feb - 04:47:48 10° WSW 04:54:50 23° SSW 05:03:47 10° SSE visible
19 Feb - 00:08:06 10° SW 00:13:09 27° SSE 00:19:58 10° ESE night (unlit)
19 Feb - 02:09:47 10° WSW 02:16:09 33° S 02:25:08 10° SE visible
19 Feb - 04:12:58 10° WSW 04:19:43 24° SSW 04:28:28 10° SSE visible
19 Feb - 23:33:54 10° SSW 23:38:25 23° SSE 23:44:18 10° ESE night (unlit)
20 Feb - 01:35:19 10° WSW 01:41:12 32° S 01:49:29 10° ESE visible
20 Feb - 03:38:13 10° WSW 03:44:38 25° SSW 03:53:06 10° SSE visible
20 Feb - 05:45:34 10° SW 05:48:03 11° SW 05:50:41 10° SSW visible
20 Feb - 22:59:46 10° SSW 23:03:44 20° SSE 23:08:40 10° ESE night (unlit)
21 Feb - 01:00:54 10° WSW 01:06:20 30° S 01:13:53 10° ESE visible
21 Feb - 03:03:33 10° WSW 03:09:36 25° SSW 03:17:42 10° SSE visible
21 Feb - 05:09:39 10° SW 05:13:00 12° SW 05:16:42 10° SSW visible
21 Feb - 22:25:47 10° SSW 22:29:05 17° SSE 22:33:01 10° ESE night (unlit)
22 Feb - 00:26:29 10° SW 00:31:31 28° S 00:38:19 10° ESE night (unlit)
22 Feb - 02:28:56 10° WSW 02:34:38 25° SSW 02:42:17 10° SE visible
22 Feb - 04:34:12 10° SW 04:37:58 13° SSW 04:42:15 10° S visible
22 Feb - 21:51:57 10° S 21:54:29 14° SSE 21:57:19 10° ESE night (unlit)
22 Feb - 23:52:09 10° SW 23:56:44 26° S 00:02:49 10° ESE night (unlit)
23 Feb - 01:54:23 10° WSW 01:59:43 25° SSW 02:06:51 10° SE visible
23 Feb - 03:59:02 10° WSW 04:02:58 14° SSW 04:07:32 10° S visible
23 Feb - 21:18:34 10° SSE 21:19:52 11° SSE 21:21:15 10° SE night (unlit)
23 Feb - 23:17:50 10° SW 23:22:01 24° S 23:27:23 10° ESE night (unlit)
24 Feb - 01:19:52 10° WSW 01:24:51 25° S 01:31:27 10° SE night (unlit)
24 Feb - 03:24:03 10° WSW 03:28:01 14° SSW 03:32:41 10° S visible
24 Feb - 22:43:33 10° SW 22:47:20 21° SSE 22:52:00 10° ESE night (unlit)
